Regional Weather Roundup
Issued by NWS Kansas City/Pleasant Hill, MO

Home | Current Version | Previous Version | Text Only | Print | Product List | Glossary On
Versions: 1 2 3 4 5 6 7 8 9 10 11 12 13 14 15 16 17 18 19 20 21 22 23 24 25 26 27
000
ASUS43 KEAX 201310
RWREAX

WEATHER ROUNDUP FOR EASTERN KANSAS AND NORTHWEST MISSOURI
NATIONAL WEATHER SERVICE KANSAS CITY/PLEASANT HILL MO
800 AM CDT WED SEP 20 2017

KSZ040-057-103>105-MOZ028-029-037-043-201400-
...KANSAS CITY METROPOLITAN AREA...

CITY           SKY/WX    TMP DP  RH WIND       PRES   REMARKS
K.C. INTL      PTCLDY    73  71  93 S10       29.79R
K.C. DOWNTOWN  CLEAR     77  72  84 S8        29.78R
LEES SUMMIT    MOSUNNY   73  71  93 SW8       29.82R
OLATHE - IXD   CLEAR     73  70  90 S7        29.81R
OLATHE - OJC   PTCLDY    73  71  93 SW5       29.82R
LAWRENCE       CLEAR     74  71  91 E5        29.78R

$$

MOZ001>008-011>017-020>025-030>033-038>040-044>046-053-054-201400-
...NORTHERN AND CENTRAL MISSOURI...

CITY           SKY/WX    TMP DP  RH WIND       PRES   REMARKS
ST. JOSEPH     CLEAR     74  71  91 S8        29.75R
MOSBY          SUNNY     73  70  88 S5        29.79S
WARRENSBURG    SUNNY     73  68  83 S10G17    29.81R
WHITEMAN AFB   MOSUNNY   75  68  78 S16       29.81R
CLINTON        SUNNY     75  72  88 S9        29.84R
SEDALIA        SUNNY     76  72  87 S13       29.85R
WARSAW         NOT AVBL
CHILLICOTHE      N/A     73  70  90 S7        29.80R
KIRKSVILLE     SUNNY     74  68  81 S8        29.84R

$$

MOZ041-047>049-056>058-063>065-088>090-097-201400-
...EASTERN AND SOUTHERN MISSOURI...

CITY           SKY/WX    TMP DP  RH WIND       PRES   REMARKS
ST. LOUIS INTL MOSUNNY   75  69  81 S8        29.91R
SPIRIT OF STL  MOSUNNY   72  70  93 E3        29.89R
COLUMBIA       SUNNY     72  70  93 S7        29.87R
JEFFERSON CITY SUNNY     72  68  87 E5        29.87R
ROLLA          SUNNY     74  70  87 S12       29.92R
OSAGE BEACH    SUNNY     72  69  90 S7        29.89R
SPRINGFIELD    SUNNY     72  71  97 S12       29.89R
BRANSON        MOSUNNY   70  70 100 CALM      29.93R
JOPLIN         SUNNY     76  73  91 S15       29.85R
WEST PLAINS    SUNNY     74  71  91 S6        29.96R

$$

IAZ060-094-KSZ022-034>040-054-083-096-NEZ052-066-093-201400-
...KANSAS...SOUTHEAST NEBRASKA AND IOWA...

CITY           SKY/WX    TMP DP  RH WIND       PRES   REMARKS
TOPEKA         CLEAR     75  71  87 S8        29.75R
MANHATTAN      CLEAR     74  68  81 S7        29.73R
EMPORIA        CLEAR     72  68  87 S12       29.78R
CHANUTE        CLEAR     76  71  85 S14       29.80R
WICHITA        PTCLDY    71  66  84 S9        29.76R
OMAHA          PTCLDY    65  58  78 N12       29.73R
LINCOLN        CLEAR     64  52  64 N14       29.77R
FALLS CITY     CLEAR     75  69  81 S10       29.72R
LAMONI         SUNNY     71  68  90 S8        29.76R
DES MOINES     MOSUNNY   74  68  81 S8        29.72R

$$





USA.gov is the U.S. government's official web portal to all federal, state and local government web resources and services.